Content
SEND FEEDBACK

Daily
Averages
Monthly
Summary
United States of America

SOUTH LAKE TAHOE, CALIFORNIA


Home > North America > United States > California
Elevation: 1908 meters     Latitude: 38 53N     Longitude: 119 59W

WEATHER
 
SELECT A DAY
Number of Records: 178,768;   Date Range: 1/1/95 - 12/23/14
 
SHARE

PRINT THIS DATA

[ ← Previous Day ]
WEATHER ALMANAC - 21 JUNE, 2013
[ Next Day → ]
[ °F ]   °C
Weather ElementAverageHighLow
Temperature11.4 °C20.6 °C (2:53 pm)0 °C (4:53 am)
Dewpoint-1.8 °C1.1 °C (11:53 am)-4.4 °C (2:53 pm)
Humidity45.1 %79 % (4:53 am)18 % (2:53 pm)
Barometer1016.6 hPa1017.6 hPa (6:53 am)1015.6 hPa (11:53 am)
Wind Speed5 km/h18.5 km/h (1:53 pm)
Wind Gust25.9 km/h (1:53 pm)
Weather ElementAverage
Visibility16.1 km
Wind DirectionNE (44.3 °)

Weather ElementTotal
Precipitation---
Heating Degree Days8.1 (Base 18.3)
Growing Degree Days0.3 (Base 10)
Averaged from 23 records on 21 June, 2013
WEATHER CONDITIONS BREAKOUT
WIND DIRECTION BREAKOUT
WEATHER BY HOUR - 21 JUNE, 2013
[ °F ]   °C
Local TimeTemperatureDewpointHumidityBarometerVisibilityWind DirectionWind SpeedGust SpeedPrecipitationEventsConditions
1:53 AM2.8 °C-2.2 °C70 %1016.9 hPa16.1 kmCalmClear
2:53 AM2.2 °C-2.2 °C73 %1016.9 hPa16.1 kmSouth (190°)7.4 km/hClear
3:53 AM1.1 °C-3.9 °C70 %1016.6 hPa16.1 kmCalmClear
4:53 AM0 °C-3.3 °C79 %1016.6 hPa16.1 kmSouth (190°)5.6 km/hClear
5:53 AM0 °C-3.9 °C75 %1017.3 hPa16.1 kmSouth (190°)7.4 km/hClear
6:53 AM2.2 °C-2.8 °C70 %1017.6 hPa16.1 kmSouth (190°)5.6 km/hClear
7:53 AM7.8 °C-0.6 °C56 %1016.9 hPa16.1 kmCalmClear
8:53 AM12.2 °C-0.6 °C41 %1015.9 hPa16.1 kmCalmClear
9:53 AM13.9 °C-1.1 °C36 %1015.9 hPa16.1 kmVariable9.3 km/hClear
10:53 AM15.6 °C0.6 °C36 %1015.9 hPa16.1 kmNNE (20°)14.8 km/hClear
11:53 AM17.2 °C1.1 °C34 %1015.6 hPa16.1 kmNNE (20°)13 km/hClear
12:53 PM18.3 °C0.6 °C31 %1015.9 hPa16.1 kmVariable5.6 km/hClear
1:53 PM20 °C-2.8 °C21 %1015.6 hPa16.1 kmNNE (20°)18.5 km/h25.9 km/hClear
2:53 PM20.6 °C-4.4 °C18 %1015.6 hPa16.1 kmVariable5.6 km/hClear
3:53 PM19.4 °C-3.9 °C21 %1016.3 hPa16.1 kmVariable7.4 km/hClear
4:53 PM20 °C-2.2 °C22 %1016.3 hPa16.1 kmVariable5.6 km/hClear
5:53 PM19.4 °C-3.9 °C21 %1015.9 hPa16.1 kmCalmClear
6:53 PM17.8 °C-3.3 °C24 %1016.3 hPa16.1 kmSSW (200°)9.3 km/hClear
7:53 PM14.4 °C-0.6 °C36 %1016.3 hPa16.1 kmCalmClear
8:53 PM11.7 °C-0.6 °C43 %1016.3 hPa16.1 kmCalmClear
9:53 PM9.4 °C-1.1 °C48 %1016.9 hPa16.1 kmCalmClear
10:53 PM8.9 °C0 °C54 %1017.3 hPa16.1 kmCalmClear
11:53 PM7.2 °C-0.6 °C58 %1017.3 hPa16.1 kmCalmClear
Hourly data recorded from KTVL, located 0 kilometers away from South Lake Tahoe, California







STORIES FROM OUR PARTNERS